This is the latest recevied weather packets stored in our database for station/object IA5FYI-13. If no packets are shown the sender has not sent any weather packets the latest 10 day(s).
| Time | Temp. | Humidity | Pressure | Rain* | Wind** | Luminosity | Snow |
|---|---|---|---|---|---|---|---|
| 1777632013 | 20° C | 41% | 1022.7 hPa | 0 mm | - | - | - |
| 1777631712 | 18.89° C | 44% | 1022.4 hPa | 0 mm | - | - | - |
| 1777631423 | 18.89° C | 43% | 1022.7 hPa | 0 mm | - | - | - |
| 1777631109 | 18.89° C | 44% | 1022.4 hPa | 0 mm | - | - | - |
| 1777630813 | 18.89° C | 45% | 1022.7 hPa | 0 mm | - | - | - |
| 1777630512 | 18.89° C | 46% | 1022.7 hPa | 0 mm | - | - | - |
| 1777630213 | 17.78° C | 46% | 1022.7 hPa | 0 mm | - | - | - |
| 1777629909 | 18.89° C | 43% | 1022.7 hPa | 0 mm | - | - | - |
| 1777629633 | 18.89° C | 41% | 1022.7 hPa | 0 mm | - | - | - |
| 1777629309 | 18.89° C | 41% | 1022.7 hPa | 0 mm | - | - | - |
| 1777629013 | 18.89° C | 41% | 1022.7 hPa | 0 mm | - | - | - |
| 1777628412 | 17.78° C | 46% | 1023 hPa | 0 mm | - | - | - |
| 1777628109 | 17.78° C | 46% | 1023 hPa | 0 mm | - | - | - |
| 1777627822 | 17.78° C | 43% | 1023.4 hPa | 0 mm | - | - | - |
| 1777627509 | 17.78° C | 46% | 1023 hPa | 0 mm | - | - | - |
| 1777627212 | 17.22° C | 50% | 1023 hPa | 0 mm | - | - | - |
| 1777626912 | 17.22° C | 48% | 1023.4 hPa | 0 mm | - | - | - |
| 1777626612 | 17.22° C | 48% | 1023.4 hPa | 0 mm | - | - | - |
| 1777626309 | 17.22° C | 47% | 1023 hPa | 0 mm | - | - | - |
| 1777626032 | 17.22° C | 48% | 1023.4 hPa | 0 mm | - | - | - |
| 1777625709 | 16.11° C | 48% | 1023.4 hPa | 0 mm | - | - | - |
| 1777625412 | 17.22° C | 45% | 1023.4 hPa | 0 mm | - | - | - |
| 1777625112 | 17.22° C | 45% | 1023.4 hPa | 0 mm | - | - | - |
| 1777624812 | 17.22° C | 47% | 1023 hPa | 0 mm | - | - | - |
| 1777624509 | 16.11° C | 45% | 1023.4 hPa | 0 mm | - | - | - |
* Rain latest hour (hover to see other rain measurements)
** Current wind speed in m/s (hover to see current wind gust speed)